GAOFEN-2

Last updated on Tue Jul 01 2025 00:02:29 GMT+0000 (Coordinated Universal Time)

1 40118U 14049A 25181.54957435 .00000569 00000+0 81269-4 0 9990 2 40118 98.0588 240.2395 0003246 286.4718 73.6137 14.80548979587204
UTC large
Height (km)
Speed (km/s)
/
Latitude / Longitude
Inclination (degrees)
Orbital Period (minutes)
Azimuth
Elevation
Range (km)
Doppler Factor

Next 0 passes for location: London (51.5072 / 0.1276)

Sorry there are no passes over London.